小惑星2003 EH1

(196256) 2003 EH1 (2008)

English version
Home page
Updated on September 19, 2009

---------------------------------------------------------------------

・ プロフィール

・ 軌道要素

The following orbital elements are taken from MPEC 2008-U49:

Epoch 2008 Nov. 30.0 TT = JDT 2454800.5                 MPC
M  15.61263              (2000.0)            P               Q
n   0.17832197     Peri.  171.35591     -0.17370498     -0.35055150
a   3.1260756      Node   282.96868     +0.83764121     +0.43882215
e   0.6189378      Incl.   70.80098     +0.51786463     -0.82737463
P   5.53           H   16.2           G   0.15           U   0
From 74 observations at 4 oppositions, 2003-2008, mean residual 0".39.

・ 光度変化

        H = 16.3  G = 0.15

---------------------------------------------------------------------

軌道要素はMPCのEphemerides and Orbital Elementsに掲載されたものです。
光度グラフはComet for Windowsで作成したものです。

---------------------------------------------------------------------

Copyright(C) Seiichi Yoshida (comet@aerith.net). All rights reserved.